| time (UTC) | temp F | wind direction | speed MPH | gust MPH | rain 1hr in | rain 24hr in | rain mn in | humidity % | barometer mb |
| 20260507060601 | 54 | 239 | 9.0 | 17.0 | 0.00 | 0.00 | 0.00 | 73 | 1011.4 |
| 20260507055601 | 53 | 281 | 8.0 | 17.0 | 0.00 | 0.00 | 0.00 | 76 | 1011.3 |
| 20260507055102 | 53 | 234 | 8.0 | 17.0 | 0.00 | 0.00 | 0.00 | 76 | 1011.1 |
| 20260507054602 | 53 | 215 | 7.0 | 14.0 | 0.00 | 0.00 | 0.00 | 76 | 1011.2 |
| 20260507054101 | 52 | 238 | 6.0 | 14.0 | 0.00 | 0.00 | 0.00 | 78 | 1011.1 |
| 20260507053602 | 52 | 227 | 5.0 | 14.0 | 0.00 | 0.00 | 0.00 | 77 | 1011.0 |
| 20260507053101 | 52 | 242 | 5.0 | 10.0 | 0.00 | 0.00 | 0.00 | 78 | 1011.1 |
| 20260507052603 | 52 | 229 | 7.0 | 14.0 | 0.00 | 0.00 | 0.00 | 78 | 1011.0 |
| 20260507052055 | 52 | 264 | 8.0 | 14.0 | 0.00 | 0.00 | 0.00 | 78 | 1010.8 |
| 20260507051553 | 52 | 202 | 8.0 | 15.0 | 0.00 | 0.00 | 0.00 | 79 | 1010.8 |
| 20260507051042 | 51 | 213 | 7.0 | 15.0 | 0.00 | 0.00 | 0.00 | 80 | 1010.7 |
| 20260507050537 | 51 | 221 | 6.0 | 14.0 | 0.00 | 0.00 | 0.00 | 79 | 1010.7 |
| 20260507050036 | 51 | 215 | 5.0 | 10.0 | 0.00 | 0.00 | 0.00 | 81 | 1010.7 |
| 20260507045535 | 51 | 242 | 5.0 | 11.0 | 0.00 | 0.00 | 0.00 | 81 | 1010.6 |
| 20260507045037 | 51 | 232 | 5.0 | 11.0 | 0.00 | 0.00 | 0.00 | 82 | 1010.6 |
| 20260507044535 | 51 | 244 | 4.0 | 8.0 | 0.00 | 0.00 | 0.00 | 82 | 1010.5 |
| 20260507044035 | 51 | 284 | 5.0 | 12.0 | 0.00 | 0.00 | 0.00 | 83 | 1010.4 |
| 20260507043533 | 51 | 230 | 6.0 | 12.0 | 0.00 | 0.00 | 0.00 | 83 | 1010.4 |
| 20260507043033 | 51 | 244 | 6.0 | 12.0 | 0.00 | 0.00 | 0.00 | 83 | 1010.3 |
| 20260507042533 | 51 | 213 | 6.0 | 10.0 | 0.00 | 0.00 | 0.00 | 83 | 1010.2 |
| 20260507042034 | 51 | 236 | 5.0 | 9.0 | 0.00 | 0.00 | 0.00 | 83 | 1010.2 |
| 20260507041533 | 51 | 229 | 4.0 | 9.0 | 0.00 | 0.00 | 0.00 | 83 | 1010.2 |
| 20260507041036 | 51 | 257 | 3.0 | 7.0 | 0.00 | 0.00 | 0.00 | 83 | 1010.2 |
| 20260507040533 | 51 | 257 | 4.0 | 10.0 | 0.00 | 0.00 | 0.00 | 83 | 1010.1 |
| 20260507040034 | 51 | 250 | 5.0 | 11.0 | 0.00 | 0.00 | 0.00 | 83 | 1010.0 |
| 20260507035531 | 51 | 244 | 5.0 | 11.0 | 0.00 | 0.00 | 0.00 | 83 | 1009.8 |
| 20260507035032 | 51 | 243 | 4.0 | 10.0 | 0.00 | 0.00 | 0.00 | 83 | 1009.7 |
| 20260507034533 | 51 | 241 | 4.0 | 9.0 | 0.00 | 0.00 | 0.00 | 83 | 1009.7 |
| 20260507034029 | 51 | 261 | 3.0 | 7.0 | 0.00 | 0.00 | 0.00 | 82 | 1009.7 |
| 20260507033529 | 51 | 255 | 4.0 | 9.0 | 0.00 | 0.00 | 0.00 | 82 | 1009.7 |
| 20260507033023 | 52 | 230 | 5.0 | 10.0 | 0.00 | 0.00 | 0.00 | 82 | 1009.6 |
| 20260507032517 | 52 | 218 | 5.0 | 10.0 | 0.00 | 0.00 | 0.00 | 82 | 1009.7 |
| 20260507032008 | 52 | 257 | 5.0 | 10.0 | 0.00 | 0.00 | 0.00 | 82 | 1009.7 |
| 20260507031505 | 52 | 276 | 5.0 | 10.0 | 0.00 | 0.00 | 0.00 | 82 | 1009.7 |
| 20260507031005 | 52 | 221 | 5.0 | 12.0 | 0.00 | 0.00 | 0.00 | 82 | 1009.5 |
| 20260507030512 | 52 | 281 | 5.0 | 12.0 | 0.00 | 0.00 | 0.00 | 82 | 1009.5 |
| 20260507030003 | 52 | 225 | 4.0 | 8.0 | 0.00 | 0.00 | 0.00 | 82 | 1009.5 |
| 20260507025503 | 52 | 234 | 4.0 | 8.0 | 0.00 | 0.00 | 0.00 | 82 | 1009.5 |
| 20260507025003 | 53 | 242 | 4.0 | 8.0 | 0.00 | 0.00 | 0.00 | 82 | 1009.4 |
| 20260507024503 | 53 | 262 | 5.0 | 14.0 | 0.00 | 0.00 | 0.00 | 82 | 1009.4 |
| 20260507024005 | 53 | 257 | 6.0 | 14.0 | 0.00 | 0.00 | 0.00 | 82 | 1009.4 |
| 20260507023505 | 53 | 209 | 6.0 | 11.0 | 0.00 | 0.00 | 0.00 | 82 | 1009.4 |
| 20260507023003 | 53 | 244 | 6.0 | 15.0 | 0.00 | 0.00 | 0.00 | 82 | 1009.3 |
| 20260507022504 | 53 | 218 | 6.0 | 15.0 | 0.00 | 0.00 | 0.00 | 82 | 1009.2 |
| 20260507022005 | 53 | 223 | 6.0 | 11.0 | 0.00 | 0.00 | 0.00 | 82 | 1009.2 |
| 20260507021504 | 53 | 273 | 6.0 | 12.0 | 0.00 | 0.00 | 0.00 | 82 | 1009.2 |
| 20260507021003 | 53 | 261 | 6.0 | 12.0 | 0.00 | 0.00 | 0.00 | 82 | 1009.2 |
| 20260507020458 | 53 | 253 | 5.0 | 13.0 | 0.00 | 0.00 | 0.00 | 82 | 1009.2 |
| 20260507015957 | 53 | 255 | 4.0 | 13.0 | 0.00 | 0.00 | 0.00 | 83 | 1009.0 |
| 20260507015456 | 53 | 267 | 4.0 | 9.0 | 0.00 | 0.00 | 0.00 | 83 | 1009.0 |
| 20260507014956 | 53 | 281 | 5.0 | 10.0 | 0.00 | 0.00 | 0.00 | 83 | 1009.0 |
| 20260507014456 | 53 | 252 | 6.0 | 10.0 | 0.00 | 0.00 | 0.00 | 83 | 1008.9 |
| 20260507013957 | 53 | 259 | 5.0 | 10.0 | 0.00 | 0.00 | 0.00 | 82 | 1008.9 |
| 20260507013456 | 53 | 256 | 5.0 | 10.0 | 0.00 | 0.00 | 0.00 | 83 | 1008.9 |
| 20260507012454 | 53 | 261 | 5.0 | 10.0 | 0.00 | 0.00 | 0.00 | 82 | 1008.7 |
| 20260507011955 | 53 | 255 | 6.0 | 13.0 | 0.00 | 0.00 | 0.00 | 82 | 1008.8 |
| 20260507011456 | 53 | 272 | 7.0 | 14.0 | 0.00 | 0.00 | 0.00 | 82 | 1008.8 |
| 20260507010955 | 53 | 234 | 6.0 | 14.0 | 0.00 | 0.00 | 0.00 | 83 | 1008.8 |
| 20260507010457 | 53 | 218 | 6.0 | 14.0 | 0.00 | 0.00 | 0.00 | 82 | 1008.7 |
| 20260507005951 | 54 | 244 | 7.0 | 14.0 | 0.00 | 0.00 | 0.00 | 83 | 1008.7 |
| 20260507005450 | 54 | 244 | 6.0 | 14.0 | 0.00 | 0.00 | 0.00 | 83 | 1008.6 |
| 20260507004950 | 54 | 251 | 5.0 | 13.0 | 0.00 | 0.00 | 0.00 | 83 | 1008.7 |
| 20260507004450 | 54 | 243 | 5.0 | 13.0 | 0.00 | 0.00 | 0.00 | 84 | 1008.6 |
| 20260507003950 | 54 | 235 | 4.0 | 9.0 | 0.00 | 0.00 | 0.00 | 84 | 1008.6 |
| 20260507003449 | 54 | 240 | 5.0 | 10.0 | 0.00 | 0.00 | 0.00 | 83 | 1008.5 |
| 20260507002949 | 54 | 260 | 6.0 | 11.0 | 0.00 | 0.00 | 0.00 | 83 | 1008.5 |
| 20260507002448 | 54 | 259 | 6.0 | 13.0 | 0.00 | 0.00 | 0.00 | 84 | 1008.6 |
| 20260507001947 | 54 | 227 | 6.0 | 13.0 | 0.00 | 0.00 | 0.00 | 84 | 1008.5 |
| 20260507001447 | 54 | 254 | 5.0 | 10.0 | 0.00 | 0.00 | 0.00 | 84 | 1008.4 |
| 20260507000945 | 54 | 237 | 4.0 | 8.0 | 0.00 | 0.00 | 0.00 | 84 | 1008.3 |
| 20260507000446 | 54 | 229 | 4.0 | 8.0 | 0.00 | 0.00 | 0.00 | 84 | 1008.3 |
| 20260506235947 | 54 | 248 | 3.0 | 8.0 | 0.00 | 0.00 | 0.00 | 84 | 1008.3 |
| 20260506235441 | 54 | 233 | 3.0 | 8.0 | 0.00 | 0.00 | 0.00 | 83 | 1008.3 |
| 20260506234941 | 54 | 263 | 4.0 | 9.0 | 0.00 | 0.00 | 0.00 | 83 | 1008.3 |
| 20260506234442 | 54 | 259 | 4.0 | 9.0 | 0.00 | 0.00 | 0.00 | 83 | 1008.2 |
| 20260506233941 | 54 | 209 | 4.0 | 10.0 | 0.00 | 0.00 | 0.00 | 83 | 1008.2 |
| 20260506233442 | 54 | 244 | 5.0 | 10.0 | 0.00 | 0.00 | 0.00 | 83 | 1008.2 |
| 20260506232940 | 55 | 216 | 5.0 | 10.0 | 0.00 | 0.00 | 0.00 | 82 | 1008.0 |
| 20260506232441 | 55 | 246 | 4.0 | 11.0 | 0.00 | 0.00 | 0.00 | 82 | 1008.0 |
| 20260506231943 | 55 | 268 | 5.0 | 11.0 | 0.00 | 0.00 | 0.00 | 82 | 1007.8 |
| 20260506231441 | 55 | 304 | 5.0 | 10.0 | 0.00 | 0.00 | 0.00 | 82 | 1007.9 |
| 20260506230941 | 55 | 315 | 6.0 | 11.0 | 0.00 | 0.00 | 0.00 | 82 | 1008.0 |
| 20260506230441 | 55 | 252 | 7.0 | 12.0 | 0.00 | 0.00 | 0.00 | 82 | 1008.0 |
| 20260506225941 | 55 | 258 | 6.0 | 13.0 | 0.00 | 0.00 | 0.00 | 82 | 1007.9 |
| 20260506225441 | 55 | 258 | 6.0 | 13.0 | 0.00 | 0.00 | 0.00 | 82 | 1007.9 |
| 20260506224940 | 55 | 235 | 6.0 | 11.0 | 0.00 | 0.00 | 0.00 | 81 | 1007.9 |
| 20260506224441 | 55 | 218 | 6.0 | 11.0 | 0.00 | 0.00 | 0.00 | 81 | 1007.9 |
| 20260506223941 | 55 | 242 | 6.0 | 12.0 | 0.00 | 0.00 | 0.00 | 81 | 1007.8 |
| 20260506223442 | 55 | 265 | 5.0 | 12.0 | 0.00 | 0.00 | 0.00 | 81 | 1007.8 |
| 20260506222941 | 55 | 270 | 5.0 | 15.0 | 0.00 | 0.00 | 0.00 | 81 | 1007.8 |
| 20260506222441 | 55 | 269 | 6.0 | 15.0 | 0.00 | 0.00 | 0.00 | 81 | 1007.8 |
| 20260506221935 | 55 | 265 | 5.0 | 10.0 | 0.00 | 0.00 | 0.00 | 81 | 1007.7 |
| 20260506221432 | 55 | 254 | 5.0 | 12.0 | 0.00 | 0.00 | 0.00 | 82 | 1007.6 |
| 20260506220935 | 55 | 252 | 5.0 | 12.0 | 0.00 | 0.00 | 0.00 | 82 | 1007.4 |
| 20260506220433 | 55 | 302 | 5.0 | 12.0 | 0.00 | 0.00 | 0.00 | 82 | 1007.4 |
| 20260506215933 | 55 | 281 | 6.0 | 11.0 | 0.00 | 0.00 | 0.00 | 82 | 1007.0 |
| 20260506215434 | 56 | 280 | 5.0 | 11.0 | 0.00 | 0.00 | 0.00 | 82 | 1006.8 |
| 20260506214932 | 56 | 234 | 6.0 | 11.0 | 0.00 | 0.00 | 0.00 | 82 | 1006.7 |
| 20260506214432 | 56 | 253 | 6.0 | 12.0 | 0.00 | 0.00 | 0.00 | 82 | 1006.6 |
| 20260506213933 | 56 | 267 | 5.0 | 12.0 | 0.00 | 0.00 | 0.00 | 82 | 1006.5 |
| 20260506213432 | 56 | 232 | 4.0 | 8.0 | 0.00 | 0.00 | 0.00 | 81 | 1006.5 |
| 20260506212933 | 57 | 252 | 4.0 | 8.0 | 0.00 | 0.00 | 0.00 | 81 | 1006.3 |
| 20260506212432 | 57 | 269 | 4.0 | 10.0 | 0.00 | 0.00 | 0.00 | 80 | 1006.1 |
| 20260506211932 | 57 | 268 | 4.0 | 10.0 | 0.00 | 0.00 | 0.00 | 80 | 1006.1 |
| 20260506211435 | 57 | 337 | 4.0 | 8.0 | 0.00 | 0.00 | 0.00 | 79 | 1006.0 |
| 20260506210934 | 57 | 266 | 4.0 | 8.0 | 0.00 | 0.00 | 0.00 | 78 | 1006.1 |
| 20260506210431 | 58 | 281 | 5.0 | 11.0 | 0.00 | 0.00 | 0.00 | 78 | 1006.1 |
| 20260506205932 | 58 | 281 | 5.0 | 11.0 | 0.00 | 0.00 | 0.00 | 78 | 1005.9 |
| 20260506205431 | 58 | 321 | 5.0 | 12.0 | 0.00 | 0.00 | 0.00 | 77 | 1005.9 |
| 20260506204934 | 58 | 281 | 5.0 | 12.0 | 0.00 | 0.00 | 0.00 | 77 | 1006.0 |
| 20260506204429 | 58 | 288 | 7.0 | 14.0 | 0.00 | 0.00 | 0.00 | 77 | 1006.1 |
| 20260506203930 | 58 | 323 | 9.0 | 20.0 | 0.00 | 0.00 | 0.00 | 76 | 1006.1 |
| 20260506203430 | 58 | 296 | 9.0 | 20.0 | 0.00 | 0.00 | 0.00 | 76 | 1006.1 |
| 20260506202929 | 58 | 282 | 7.0 | 20.0 | 0.00 | 0.00 | 0.00 | 75 | 1006.1 |
| 20260506202429 | 59 | 277 | 7.0 | 19.0 | 0.00 | 0.00 | 0.00 | 75 | 1006.0 |
| 20260506201930 | 59 | 302 | 8.0 | 17.0 | 0.00 | 0.00 | 0.00 | 75 | 1006.1 |
| 20260506201430 | 59 | 282 | 9.0 | 17.0 | 0.00 | 0.00 | 0.00 | 74 | 1006.0 |
| 20260506200932 | 59 | 287 | 8.0 | 20.0 | 0.00 | 0.00 | 0.00 | 73 | 1006.0 |
| 20260506200426 | 60 | 266 | 8.0 | 20.0 | 0.00 | 0.00 | 0.00 | 72 | 1006.0 |
| 20260506195925 | 60 | 283 | 11.0 | 22.0 | 0.00 | 0.00 | 0.00 | 71 | 1005.8 |
| 20260506195425 | 61 | 307 | 14.0 | 27.0 | 0.00 | 0.00 | 0.00 | 69 | 1005.7 |
| 20260506194924 | 62 | 270 | 13.0 | 27.0 | 0.00 | 0.00 | 0.00 | 68 | 1005.6 |
| 20260506194423 | 63 | 309 | 11.0 | 22.0 | 0.00 | 0.00 | 0.00 | 65 | 1005.5 |
| 20260506193933 | 64 | 227 | 9.0 | 20.0 | 0.00 | 0.00 | 0.00 | 60 | 1005.5 |
| 20260506193424 | 65 | 284 | 7.0 | 20.0 | 0.00 | 0.00 | 0.00 | 56 | 1005.2 |
| 20260506192924 | 64 | 202 | 5.0 | 10.0 | 0.00 | 0.00 | 0.00 | 49 | 1004.5 |
| 20260506192424 | 64 | 191 | 5.0 | 10.0 | 0.00 | 0.00 | 0.00 | 51 | 1004.3 |
| 20260506191919 | 63 | 197 | 5.0 | 10.0 | 0.00 | 0.00 | 0.00 | 52 | 1004.2 |
| 20260506191417 | 63 | 190 | 5.0 | 11.0 | 0.00 | 0.00 | 0.00 | 53 | 1004.2 |
| 20260506190913 | 63 | 195 | 4.0 | 11.0 | 0.00 | 0.00 | 0.00 | 55 | 1004.1 |
| 20260506190410 | 63 | 190 | 3.0 | 7.0 | 0.00 | 0.00 | 0.00 | 53 | 1003.9 |
| 20260506185912 | 64 | 209 | 2.0 | 7.0 | 0.00 | 0.00 | 0.00 | 54 | 1004.0 |
| 20260506185410 | 64 | 196 | 1.0 | 5.0 | 0.00 | 0.00 | 0.00 | 53 | 1003.8 |
| 20260506184910 | 65 | 195 | 1.0 | 4.0 | 0.00 | 0.00 | 0.00 | 52 | 1003.7 |
| 20260506184410 | 65 | 195 | 2.0 | 4.0 | 0.00 | 0.00 | 0.00 | 51 | 1003.5 |
| 20260506183910 | 66 | 196 | 2.0 | 3.0 | 0.00 | 0.00 | 0.00 | 50 | 1003.3 |
| 20260506183411 | 67 | 196 | 2.0 | 5.0 | 0.00 | 0.00 | 0.00 | 50 | 1003.2 |
| 20260506182909 | 67 | 197 | 1.0 | 5.0 | 0.00 | 0.00 | 0.00 | 49 | 1003.0 |
| 20260506182408 | 68 | 182 | 1.0 | 3.0 | 0.00 | 0.00 | 0.00 | 49 | 1002.9 |
| 20260506181907 | 68 | 156 | 2.0 | 3.0 | 0.00 | 0.00 | 0.00 | 47 | 1002.8 |
| 20260506181404 | 68 | 154 | 2.0 | 4.0 | 0.00 | 0.00 | 0.00 | 46 | 1002.7 |
| 20260506180905 | 69 | 148 | 3.0 | 6.0 | 0.00 | 0.00 | 0.00 | 45 | 1002.7 |
| 20260506180404 | 69 | 162 | 4.0 | 7.0 | 0.00 | 0.00 | 0.00 | 45 | 1002.6 |
| 20260506175904 | 70 | 140 | 4.0 | 7.0 | 0.00 | 0.00 | 0.00 | 44 | 1002.7 |
| 20260506175403 | 70 | 132 | 3.0 | 5.0 | 0.00 | 0.00 | 0.00 | 44 | 1002.8 |
| 20260506174901 | 71 | 151 | 3.0 | 6.0 | 0.00 | 0.00 | 0.00 | 44 | 1002.8 |
| 20260506174400 | 71 | 143 | 2.0 | 6.0 | 0.00 | 0.00 | 0.00 | 43 | 1002.8 |
| 20260506173901 | 71 | 156 | 3.0 | 5.0 | 0.00 | 0.00 | 0.00 | 43 | 1002.8 |
| 20260506173356 | 72 | 177 | 4.0 | 6.0 | 0.00 | 0.00 | 0.00 | 41 | 1002.8 |
| 20260506172855 | 72 | 165 | 4.0 | 9.0 | 0.00 | 0.00 | 0.00 | 41 | 1002.7 |
| 20260506172352 | 73 | 160 | 4.0 | 10.0 | 0.00 | 0.00 | 0.00 | 40 | 1002.7 |
| 20260506171852 | 73 | 170 | 4.0 | 10.0 | 0.00 | 0.00 | 0.00 | 40 | 1002.7 |
| 20260506171350 | 74 | 130 | 4.0 | 8.0 | 0.00 | 0.00 | 0.00 | 40 | 1002.5 |
| 20260506170850 | 74 | 127 | 4.0 | 10.0 | 0.00 | 0.00 | 0.00 | 39 | 1002.6 |
| 20260506170349 | 74 | 167 | 4.0 | 10.0 | 0.00 | 0.00 | 0.00 | 38 | 1002.7 |
| 20260506165846 | 74 | 113 | 5.0 | 10.0 | 0.00 | 0.00 | 0.00 | 39 | 1002.8 |
| 20260506165346 | 74 | 140 | 4.0 | 10.0 | 0.00 | 0.00 | 0.00 | 39 | 1002.9 |
| 20260506164846 | 74 | 154 | 4.0 | 9.0 | 0.00 | 0.00 | 0.00 | 39 | 1002.9 |
| 20260506164345 | 75 | 96 | 3.0 | 9.0 | 0.00 | 0.00 | 0.00 | 40 | 1002.9 |
| 20260506163844 | 74 | 130 | 2.0 | 6.0 | 0.00 | 0.00 | 0.00 | 41 | 1002.9 |
| 20260506163340 | 74 | 78 | 3.0 | 9.0 | 0.00 | 0.00 | 0.00 | 42 | 1002.9 |
| 20260506162838 | 74 | 150 | 5.0 | 9.0 | 0.00 | 0.00 | 0.00 | 43 | 1003.0 |
| 20260506162335 | 74 | 144 | 5.0 | 11.0 | 0.00 | 0.00 | 0.00 | 43 | 1003.0 |
| 20260506161837 | 73 | 151 | 5.0 | 11.0 | 0.00 | 0.00 | 0.00 | 42 | 1003.1 |
| 20260506161336 | 73 | 101 | 6.0 | 11.0 | 0.00 | 0.00 | 0.00 | 43 | 1003.2 |
| 20260506160831 | 73 | 157 | 6.0 | 11.0 | 0.00 | 0.00 | 0.00 | 43 | 1003.2 |
| 20260506160335 | 73 | 128 | 6.0 | 11.0 | 0.00 | 0.00 | 0.00 | 43 | 1003.2 |
| 20260506155823 | 74 | 155 | 7.0 | 12.0 | 0.00 | 0.00 | 0.00 | 44 | 1003.3 |
| 20260506155323 | 74 | 121 | 7.0 | 12.0 | 0.00 | 0.00 | 0.00 | 43 | 1003.4 |
| 20260506154817 | 73 | 148 | 6.0 | 12.0 | 0.00 | 0.00 | 0.00 | 43 | 1003.4 |
| 20260506154317 | 73 | 90 | 6.0 | 12.0 | 0.00 | 0.00 | 0.00 | 44 | 1003.4 |
| 20260506153816 | 73 | 127 | 5.0 | 12.0 | 0.00 | 0.00 | 0.00 | 44 | 1003.7 |
| 20260506153323 | 73 | 91 | 5.0 | 14.0 | 0.00 | 0.00 | 0.00 | 45 | 1003.8 |
| 20260506152815 | 72 | 132 | 6.0 | 14.0 | 0.00 | 0.00 | 0.00 | 46 | 1003.9 |
| 20260506152312 | 72 | 171 | 6.0 | 12.0 | 0.00 | 0.00 | 0.00 | 45 | 1003.9 |
| 20260506151810 | 72 | 119 | 7.0 | 14.0 | 0.00 | 0.00 | 0.00 | 45 | 1003.8 |
| 20260506151310 | 72 | 126 | 6.0 | 14.0 | 0.00 | 0.00 | 0.00 | 44 | 1003.8 |
| 20260506150809 | 72 | 136 | 4.0 | 9.0 | 0.00 | 0.00 | 0.00 | 46 | 1003.9 |
| 20260506150308 | 72 | 173 | 4.0 | 10.0 | 0.00 | 0.00 | 0.00 | 45 | 1003.9 |
| 20260506145808 | 72 | 136 | 4.0 | 13.0 | 0.00 | 0.00 | 0.00 | 45 | 1003.9 |
| 20260506145306 | 72 | 108 | 4.0 | 13.0 | 0.00 | 0.00 | 0.00 | 48 | 1004.0 |
| 20260506144803 | 71 | 147 | 6.0 | 13.0 | 0.00 | 0.00 | 0.00 | 47 | 1004.1 |
| 20260506144301 | 71 | 92 | 8.0 | 14.0 | 0.00 | 0.00 | 0.00 | 46 | 1004.3 |
| 20260506143801 | 71 | 112 | 9.0 | 18.0 | 0.00 | 0.00 | 0.00 | 46 | 1004.3 |
| 20260506143301 | 72 | 161 | 9.0 | 18.0 | 0.00 | 0.00 | 0.00 | 46 | 1004.4 |
| 20260506142805 | 72 | 135 | 8.0 | 18.0 | 0.00 | 0.00 | 0.00 | 45 | 1004.4 |
| 20260506142257 | 73 | 122 | 9.0 | 17.0 | 0.00 | 0.00 | 0.00 | 45 | 1004.5 |
| 20260506141748 | 73 | 121 | 8.0 | 18.0 | 0.00 | 0.00 | 0.00 | 45 | 1004.4 |
| 20260506141244 | 73 | 112 | 8.0 | 18.0 | 0.00 | 0.00 | 0.00 | 46 | 1004.4 |
| 20260506140733 | 73 | 120 | 8.0 | 17.0 | 0.00 | 0.00 | 0.00 | 46 | 1004.5 |
| 20260506140233 | 72 | 123 | 7.0 | 16.0 | 0.00 | 0.00 | 0.00 | 46 | 1004.5 |
| 20260506135723 | 73 | 123 | 7.0 | 16.0 | 0.00 | 0.00 | 0.00 | 46 | 1004.6 |
| 20260506135222 | 73 | 140 | 5.0 | 12.0 | 0.00 | 0.00 | 0.00 | 46 | 1004.7 |
| 20260506134711 | 73 | 49 | 7.0 | 14.0 | 0.00 | 0.00 | 0.00 | 44 | 1004.8 |
| 20260506134202 | 74 | 96 | 7.0 | 14.0 | 0.00 | 0.00 | 0.00 | 44 | 1004.8 |
| 20260506133658 | 74 | 176 | 6.0 | 11.0 | 0.00 | 0.00 | 0.00 | 45 | 1004.8 |
| 20260506133150 | 73 | 109 | 8.0 | 16.0 | 0.00 | 0.00 | 0.00 | 44 | 1004.8 |
| 20260506132653 | 73 | 163 | 9.0 | 16.0 | 0.00 | 0.00 | 0.00 | 43 | 1004.9 |
| 20260506132144 | 74 | 164 | 8.0 | 16.0 | 0.00 | 0.00 | 0.00 | 44 | 1004.9 |
| 20260506131641 | 74 | 146 | 8.0 | 15.0 | 0.00 | 0.00 | 0.00 | 42 | 1005.0 |
| 20260506131139 | 73 | 126 | 9.0 | 16.0 | 0.00 | 0.00 | 0.00 | 46 | 1005.0 |
| 20260506130642 | 72 | 112 | 7.0 | 16.0 | 0.00 | 0.00 | 0.00 | 46 | 1005.1 |
| 20260506130149 | 72 | 145 | 6.0 | 15.0 | 0.00 | 0.00 | 0.00 | 46 | 1005.2 |
| 20260506125636 | 72 | 116 | 7.0 | 15.0 | 0.00 | 0.00 | 0.00 | 46 | 1005.3 |
| 20260506125136 | 72 | 153 | 7.0 | 13.0 | 0.00 | 0.00 | 0.00 | 46 | 1005.3 |
| 20260506124634 | 72 | 203 | 7.0 | 14.0 | 0.00 | 0.00 | 0.00 | 45 | 1005.5 |
| 20260506124134 | 73 | 147 | 7.0 | 14.0 | 0.00 | 0.00 | 0.00 | 43 | 1005.6 |
| 20260506123633 | 73 | 159 | 7.0 | 15.0 | 0.00 | 0.00 | 0.00 | 44 | 1005.6 |
| 20260506123144 | 73 | 148 | 6.0 | 15.0 | 0.00 | 0.00 | 0.00 | 44 | 1005.7 |
| 20260506122632 | 74 | 59 | 7.0 | 13.0 | 0.00 | 0.00 | 0.00 | 43 | 1005.7 |
| 20260506122132 | 74 | 125 | 9.0 | 17.0 | 0.00 | 0.00 | 0.00 | 43 | 1005.8 |
| 20260506121632 | 74 | 115 | 9.0 | 17.0 | 0.00 | 0.00 | 0.00 | 44 | 1005.7 |
| 20260506121132 | 74 | 154 | 9.0 | 17.0 | 0.00 | 0.00 | 0.00 | 42 | 1005.7 |
| 20260506120631 | 73 | 92 | 9.0 | 17.0 | 0.00 | 0.00 | 0.00 | 44 | 1005.7 |
| 20260506120130 | 72 | 117 | 8.0 | 15.0 | 0.00 | 0.00 | 0.00 | 45 | 1005.9 |
| 20260506115634 | 71 | 128 | 8.0 | 17.0 | 0.00 | 0.00 | 0.00 | 45 | 1006.0 |
| 20260506115130 | 71 | 117 | 9.0 | 17.0 | 0.00 | 0.00 | 0.00 | 45 | 1006.0 |
| 20260506114629 | 71 | 162 | 7.0 | 12.0 | 0.00 | 0.00 | 0.00 | 42 | 1006.1 |
| 20260506114128 | 71 | 193 | 5.0 | 10.0 | 0.00 | 0.00 | 0.00 | 46 | 1006.1 |
| 20260506113628 | 71 | 142 | 4.0 | 10.0 | 0.00 | 0.00 | 0.00 | 47 | 1006.1 |
| 20260506113128 | 71 | 80 | 6.0 | 15.0 | 0.00 | 0.00 | 0.00 | 48 | 1006.1 |
| 20260506112628 | 71 | 133 | 5.0 | 15.0 | 0.00 | 0.00 | 0.00 | 47 | 1006.3 |
| 20260506112126 | 72 | 127 | 4.0 | 11.0 | 0.00 | 0.00 | 0.00 | 45 | 1006.3 |
| 20260506111626 | 72 | 106 | 5.0 | 10.0 | 0.00 | 0.00 | 0.00 | 45 | 1006.4 |
| 20260506111126 | 72 | 83 | 4.0 | 10.0 | 0.00 | 0.00 | 0.00 | 46 | 1006.4 |
| 20260506110626 | 72 | 116 | 5.0 | 10.0 | 0.00 | 0.00 | 0.00 | 48 | 1006.5 |
| 20260506110129 | 71 | 136 | 6.0 | 11.0 | 0.00 | 0.00 | 0.00 | 47 | 1006.6 |
| 20260506105626 | 71 | 133 | 5.0 | 11.0 | 0.00 | 0.00 | 0.00 | 46 | 1006.7 |
| 20260506105125 | 71 | 105 | 4.0 | 11.0 | 0.00 | 0.00 | 0.00 | 45 | 1006.6 |
| 20260506104625 | 71 | 101 | 2.0 | 6.0 | 0.00 | 0.00 | 0.00 | 46 | 1006.6 |
| 20260506104125 | 71 | 131 | 1.0 | 6.0 | 0.00 | 0.00 | 0.00 | 46 | 1006.7 |
| 20260506103626 | 71 | 90 | 3.0 | 8.0 | 0.00 | 0.00 | 0.00 | 44 | 1006.8 |
| 20260506103130 | 71 | 122 | 5.0 | 11.0 | 0.00 | 0.00 | 0.00 | 45 | 1006.8 |
| 20260506102619 | 71 | 119 | 6.0 | 11.0 | 0.00 | 0.00 | 0.00 | 43 | 1006.8 |
| 20260506102118 | 71 | 109 | 6.0 | 10.0 | 0.00 | 0.00 | 0.00 | 46 | 1006.9 |
| 20260506101615 | 71 | 105 | 6.0 | 11.0 | 0.00 | 0.00 | 0.00 | 43 | 1006.9 |
| 20260506101114 | 71 | 124 | 4.0 | 11.0 | 0.00 | 0.00 | 0.00 | 42 | 1006.9 |
| 20260506100612 | 71 | 122 | 3.0 | 7.0 | 0.00 | 0.00 | 0.00 | 43 | 1007.0 |
| 20260506100110 | 70 | 200 | 3.0 | 7.0 | 0.00 | 0.00 | 0.00 | 49 | 1007.1 |
| 20260506095610 | 69 | 146 | 2.0 | 5.0 | 0.00 | 0.00 | 0.00 | 48 | 1007.1 |
| 20260506095109 | 69 | 40 | 3.0 | 5.0 | 0.00 | 0.00 | 0.00 | 49 | 1007.1 |
| 20260506094610 | 70 | 36 | 3.0 | 6.0 | 0.00 | 0.00 | 0.00 | 48 | 1007.3 |
| 20260506094109 | 69 | 11 | 3.0 | 6.0 | 0.00 | 0.00 | 0.00 | 52 | 1007.3 |
| 20260506093609 | 69 | 101 | 3.0 | 5.0 | 0.00 | 0.00 | 0.00 | 49 | 1007.4 |
| 20260506093108 | 69 | 165 | 3.0 | 9.0 | 0.00 | 0.00 | 0.00 | 50 | 1007.4 |
| 20260506092607 | 69 | 126 | 4.0 | 9.0 | 0.00 | 0.00 | 0.00 | 51 | 1007.4 |
| 20260506092104 | 70 | 171 | 4.0 | 7.0 | 0.00 | 0.00 | 0.00 | 50 | 1007.3 |
| 20260506091605 | 70 | 219 | 4.0 | 7.0 | 0.00 | 0.00 | 0.00 | 48 | 1007.5 |
| 20260506091103 | 70 | 227 | 4.0 | 8.0 | 0.00 | 0.00 | 0.00 | 47 | 1007.6 |
| 20260506090603 | 70 | 217 | 4.0 | 8.0 | 0.00 | 0.00 | 0.00 | 50 | 1007.7 |
| 20260506090109 | 70 | 244 | 4.0 | 11.0 | 0.00 | 0.00 | 0.00 | 48 | 1007.6 |
| 20260506085601 | 70 | 184 | 5.0 | 11.0 | 0.00 | 0.00 | 0.00 | 48 | 1007.5 |
| 20260506085103 | 70 | 169 | 4.0 | 10.0 | 0.00 | 0.00 | 0.00 | 50 | 1007.6 |
| 20260506084600 | 69 | 223 | 5.0 | 11.0 | 0.00 | 0.00 | 0.00 | 50 | 1007.6 |
| 20260506084053 | 69 | 124 | 6.0 | 11.0 | 0.00 | 0.00 | 0.00 | 52 | 1007.7 |
| 20260506083557 | 69 | 173 | 3.0 | 9.0 | 0.00 | 0.00 | 0.00 | 50 | 1007.7 |
| 20260506083051 | 69 | 180 | 2.0 | 9.0 | 0.00 | 0.00 | 0.00 | 53 | 1007.7 |
| 20260506082606 | 68 | 190 | 3.0 | 5.0 | 0.00 | 0.00 | 0.00 | 57 | 1007.8 |
| 20260506082047 | 67 | 124 | 2.0 | 5.0 | 0.00 | 0.00 | 0.00 | 56 | 1007.8 |
| 20260506081556 | 67 | 334 | 2.0 | 6.0 | 0.00 | 0.00 | 0.00 | 57 | 1007.8 |
| 20260506081049 | 66 | 253 | 3.0 | 7.0 | 0.00 | 0.00 | 0.00 | 59 | 1007.8 |
| 20260506080545 | 66 | 196 | 4.0 | 8.0 | 0.00 | 0.00 | 0.00 | 56 | 1007.7 |
| 20260506073040 | 64 | 320 | 2.0 | 6.0 | 0.00 | 0.00 | 0.00 | 63 | 1007.9 |
| 20260506072541 | 64 | 304 | 3.0 | 7.0 | 0.00 | 0.00 | 0.00 | 66 | 1007.9 |
| 20260506072041 | 64 | 261 | 3.0 | 7.0 | 0.00 | 0.00 | 0.00 | 68 | 1008.1 |
| 20260506071542 | 63 | 266 | 3.0 | 5.0 | 0.00 | 0.00 | 0.00 | 69 | 1008.1 |
| 20260506071032 | 63 | 268 | 3.0 | 5.0 | 0.00 | 0.00 | 0.00 | 68 | 1008.1 |
| 20260506070530 | 63 | 301 | 3.0 | 5.0 | 0.00 | 0.00 | 0.00 | 67 | 1008.1 |
| 20260506062030 | 60 | 288 | 4.0 | 8.0 | 0.00 | 0.00 | 0.00 | 73 | 1008.0 |
| 20260506061529 | 60 | 259 | 4.0 | 8.0 | 0.00 | 0.00 | 0.00 | 71 | 1008.1 |
| 20260506061027 | 60 | 263 | 5.0 | 10.0 | 0.00 | 0.00 | 0.00 | 72 | 1008.0 |